Regional Weather Roundup
Issued by NWS

Home | Current Version | Previous Version | Graphics & Text | Print | Product List | Glossary On
Versions: 1 2 3 4 5 6 7 8 9 10 11 12 13 14 15 16 17 18 19 20 21 22 23 24 25 26 27 28 29 30 31 32 33 34 35 36 37 38 39 40 41 42 43 44 45 46 47 48 49 50
000
ASUS43 KLOT 011358
RWRIL

ILLINOIS REGIONAL WEATHER ROUNDUP
NATIONAL WEATHER SERVICE CHICAGO/ROMEOVILLE IL
900 AM CDT FRI AUG 01 2014

NOTE: "FAIR" INDICATES FEW OR NO CLOUDS BELOW 12,000 FEET WITH NO
SIGNIFICANT WEATHER AND/OR OBSTRUCTIONS TO VISIBILITY.

* THESE STATIONS ARE NOT UNDER NWS QUALITY CONTROL. THEY ALSO MAY NOT
  REPORT WEATHER SUCH AS PRECIPITATION OR FOG.

ILZ001-002-007-009-015-016-024-011500-
NORTHWEST ILLINOIS

CITY           SKY/WX    TMP DP  RH WIND       PRES   REMARKS
MOLINE         MOSUNNY   70  63  78 SW7       30.09S
$$

ILZ003-004-008-010-011-017-018-011500-
NORTH CENTRAL ILLINOIS

CITY           SKY/WX    TMP DP  RH WIND       PRES   REMARKS
ROCKFORD       NOT AVBL
$$

ILZ005-006-012>014-019>023-011500-
NORTHEAST ILLINOIS

CITY           SKY/WX    TMP DP  RH WIND       PRES   REMARKS
CHICAGO-OHARE  MOSUNNY   74  56  53 W7        30.08F
CHICAGO-MIDWAY PTSUNNY   73  60  63 W5        30.08F
AURORA         PTSUNNY   71  60  68 SE5       30.09S
WAUKEGAN       SUNNY     73  61  65 VRB6      30.08R
DUPAGE AIRPORT MOSUNNY   73  60  63 CALM      30.09F
WHEELING       SUNNY     75  60  59 SW7       30.10S
NORTHERLY ISL    N/A     74  58  57 W7          N/A
$$

LMZ740>746-011500-
SOUTHERN LAKE MICHIGAN

STATION/POSITION SKY/WX   TEMP    WIND        PRES    VSBY  WAVE
                          AIR SEA DIR/SP/G                  HT/PER
                          (F)     (DEG/KT/KT) (MB)    (MI)  (FT/S)
SOUTHERN BUOY              64 62  240/  6/  6 1018.2R         0
WAUKEGAN HARBOR            70     270/  6/  7   N/A
HARRISON CRIB              71     210/  5/  7   N/A
BURNHAM HARBOR             74     240/  6/  8   N/A
CALUMET HARBOR             72     210/  5/  8 1017.9R
MICHIGAN CITY              69     180/  6/  7   N/A
MICHIGAN CITY 6N           69 69  210/  6/  8   N/A           1
ST. JOSEPH                 68 68  160/  6/  6   N/A           1
$$

ILZ025>027-034>036-040-047-049-050-058-095>099-011500-
WEST-CENTRAL ILLINOIS

CITY           SKY/WX    TMP DP  RH WIND       PRES   REMARKS
$$

ILZ028>032-037-038-041>044-048-051>054-059>061-011500-
CENTRAL ILLINOIS

CITY           SKY/WX    TMP DP  RH WIND       PRES   REMARKS
PEORIA         NOT AVBL
SPRINGFIELD    MOSUNNY   74  65  73 CALM      30.09S
TAYLORVILLE    NOT AVBL
$$

ILZ033-039-045-046-055>057-062-063-011500-
EAST-CENTRAL ILLINOIS

CITY           SKY/WX    TMP DP  RH WIND       PRES   REMARKS
CHAMPAIGN      SUNNY     72  65  78 CALM      30.11S
MATTOON          N/A     75  66  73 CALM      30.10S
$$

ILZ079-100>102-011500-
SOUTHWEST ILLINOIS

CITY           SKY/WX    TMP DP  RH WIND       PRES   REMARKS
CAHOKIA*       SUNNY     74  67  78 CALM      30.09S
$$

ILZ064>066-069>071-074>076-080>082-084>086-088>090-092>094-011500-
SOUTH-CENTRAL ILLINOIS

CITY           SKY/WX    TMP DP  RH WIND       PRES   REMARKS
CARBONDALE     SUNNY     72  66  81 CALM      30.10S
MARION         SUNNY     72  66  83 MISG      30.11R
$$

ILZ067-068-072-073-078-083-087-091-011500-
SOUTHEAST ILLINOIS

CITY           SKY/WX    TMP DP  RH WIND       PRES   REMARKS
LAWRENCEVILLE  SUNNY     74  66  76 NE3       30.11S
$$

ABBREVIATIONS USED IN REMARKS
   TC - TEMPERATURE IN CELSIUS
  WCI - WIND CHILL INDEX
   HX - HEAT INDEX
  VSB - VISIBILITY
$$



USA.gov is the U.S. government's official web portal to all federal, state and local government web resources and services.